Regional Weather Roundup
Issued by NWS Portland, ME

Home | Current Version | Previous Version | Text Only | Print | Product List | Glossary On
Versions: 1 2 3 4 5 6 7 8 9 10 11 12 13 14 15 16 17 18 19 20 21 22 23 24 25 26 27 28 29 30 31 32 33 34 35 36 37 38 39 40 41 42 43 44 45 46 47 48 49 50
000
ASUS41 KGYX 281310
RWRGYX
WEATHER ROUNDUP FOR MAINE AND NEW HAMPSHIRE
NATIONAL WEATHER SERVICE GRAY ME
800 AM EST SUN DEC 28 2014

MEZ002-005-006-010-012-015-018-020-021-024-026-027-029-281400-
MAINE

CITY           SKY/WX    TMP DP  RH WIND       PRES   REMARKS
PORTLAND       LGT RAIN  43  40  89 SW6       29.75F FOG
SANFORD        CLOUDY    41  36  81 SW7       29.76F
BAR HARBOR     CLOUDY    43  43 100 SW8G20    29.72F
WISCASSET      LGT RAIN  43  41  93 SW6       29.76F FOG
ROCKLAND       CLOUDY    43  41  93 SW9G23    29.74S
FRYEBURG       LGT RAIN  43  40  89 SW12      29.71F
LEWISTONAUBURN CLOUDY    39  37  93 S6        29.71F
AUGUSTA        LGT RAIN  39  38  96 S6        29.73S FOG
WATERVILLE     CLOUDY    39  36  87 S5        29.69F
BANGOR         LGT RAIN  41  39  93 SW5       29.71S
GREENVILLE       N/A     32  32 100 E3        29.61S
MILLINOCKET    MIX PCPN  37  35  92 VRB3      29.66F
HOULTON        LGT RAIN  37  35  92 S9        29.62F FOG
PRESQUE ISLE   CLOUDY    36  30  80 S5        29.57F
FRENCHVILLE    FOG        1   1 100 SE8       29.53F VSB 1/4
CARIBOU        CLOUDY    34  33  96 S9        29.56F
$$

NHZ002-005-008-009-011-012-014-281400-
NEW HAMPSHIRE

CITY           SKY/WX    TMP DP  RH WIND       PRES   REMARKS
PORTSMOUTH     LGT RAIN  44  37  79 S9        29.76F FOG
ROCHESTER      LGT RAIN  41  39  93 VRB3      29.75F FOG
NASHUA         LGT RAIN  44  38  79 CALM      29.80F
MANCHESTER     LGT RAIN  45  37  73 SW8       29.77F
CONCORD        LGT RAIN  42  40  92 CALM      29.78F
LACONIA        CLOUDY    43  39  87 SW8       29.73F
PLYMOUTH       MIX PCPN  34  34 100 CALM      29.75F VSB 1
BERLIN         CLOUDY    41  37  86 S7        29.67F
WHITEFIELD     LGT RAIN  43  40  89 SW6       29.71F
JAFFREY        RAIN      39  37  92 SW7       29.80F FOG
KEENE          CLOUDY    39  39 100 W3        29.83R
LEBANON        LGT RAIN  38  36  92 CALM      29.76R FOG
MT WASHINGTON  SLEET     25  25 100 W67         N/A  VSB 0   WCI   2
$$

VTZ005-007-008-281400-
VERMONT

CITY           SKY/WX    TMP DP  RH WIND       PRES   REMARKS
ST JOHNSBURY     N/A     41  38  89 MISG      29.70F
MONTPELIER     CLOUDY    43  37  79 SW6       29.75S
BURLINGTON     CLOUDY    45  39  79 S12       29.75R
$$

MAZ007-012-024-CTZ003-RIZ002-NYZ038-NYZ072-281400-
SOUTHERN NEW ENGLAND AND NY

CITY           SKY/WX    TMP DP  RH WIND       PRES   REMARKS
BOSTON         CLOUDY    46  37  71 SW12      29.82F
WORCESTER      LGT RAIN  42  36  79 W16       29.81S
NANTUCKET      MOCLDY    50  45  83 SW18      29.90S
PROVIDENCE     CLOUDY    46  40  79 SW6       29.88S
HARTFORD       CLOUDY    44  39  82 S9        29.85F
ALBANY         LGT RAIN  43  39  86 S8        29.84R
NEW YORK CITY  LGT RAIN  46  40  79 S6        29.91F
$$

ANZ081-ANZ082-ANZ150-NHZ014-MEZ023>029-281400-
COASTAL MARINE OBSERVATIONS

STATION/POSITION TIME  TEMP    WIND        PRES    WAVE
                       AIR SEA DIR/SP/G            HT/PER
                 (UTC) (F)     (DEG/KT/KT) (MB)    (FT/S)
MOUNT DESERT ROC 1300   46                 1006.3F
MATINICUS ROCK   1300          230/ 27/ 31 1007.3F
PORTLAND WX BUOY 1250   44 43  200/ 16/ 19 1007.1F   3/12
WELLS            1200   43 42  200/  4/  5 1007.9F
ISLE OF SHOALS   1300   45     210/ 18/ 19 1008.0F
JEFFREYS LEDGE   1221      48                N/A     4/ 5
CASHES LEDGE BUO 1250   49 48  230/ 19/ 23 1008.7S   6/ 6
$$

.............KEY..............
   WCI - WIND CHILL
   TC  - TEMPERATURE IN CELSIUS
   VSB - VISIBILITY IN MILES
   HX  - HEAT INDEX
   FAIR- INDICATES FEW OR NO CLOUDS BELOW 12,000 FT, WITH NO
         SIGNIFICANT WEATHER AND/OR OBSTRUCTIONS TO VISIBILITY.




USA.gov is the U.S. government's official web portal to all federal, state and local government web resources and services.